Valdosta, GA

7:07 AM EDT on July 28, 2016 (GMT -0400)
Moody Air Force Base

Weather History for KVAD - January, 2013

Change the Weather History Date:

Saturday, January 19, 2013

  Actual Average Record
Temperature  
Mean Temperature 52 °F -  
Max Temperature 66 °F 60 °F 80 °F (2001)
Min Temperature 39 °F 40 °F 24 °F (1997)
Degree Days  
Heating Degree Days 12    
Growing Degree Days 2 (Base 50)    
Moisture  
Dew Point 39 °F    
Average Humidity 63    
Maximum Humidity 86    
Minimum Humidity 50    
Precipitation  
Precipitation 0.00 in - - ()
Sea Level Pressure  
Sea Level Pressure 30.33 in    
Wind  
Wind Speed 7 mph (NE)    
Max Wind Speed 12 mph    
Max Gust Speed -    
Visibility 10 miles    
Events      
Averages and records for this station are not official NWS values.
T = Trace of Precipitation, MM = Missing Value Source: NWS Daily Summary

Daily Weather History Graph

Daily Weather History Graph

Search for Another Location

Airport or City:

Trip Planner

Search our weather history database for the weather conditions in past years. The results will help you decide how hot, cold, wet, or windy it might be!

Date:

Astronomy

Jan. 19, 2013 Rise Set
Actual Time 7:30 AM EST 5:57 PM EST
Civil Twilight 7:04 AM EST 6:23 PM EST
Nautical Twilight 6:35 AM EST 6:52 PM EST
Astronomical Twilight 6:06 AM EST 7:21 PM EST
Moon 12:18 PM EST (1/19) 1:09 AM EST (1/19)
Length of Visible Light 11h 18m
Length of Day
10h 26m
First Quarter, 57% of the Moon is Illuminated
Jan 19
First Quarter
Jan 26
Full
Feb 3
Last Quarter
Feb 10
New
Feb 17
First Quarter

Hourly Weather History & Observations

Time (EST) Temp. Windchill Dew Point Humidity Pressure Visibility Wind Dir Wind Speed Gust Speed Precip Events Conditions
12:55 AM 40.1 °F 35.3 °F 30.7 °F 69% 30.40 in 10.0 mi NE 6.9 mph - N/A   Clear
1:55 AM 40.1 °F 34.7 °F 30.2 °F 68% 30.40 in 10.0 mi NE 8.1 mph - N/A   Clear
2:55 AM 40.6 °F 34.8 °F 27.1 °F 59% 30.38 in 10.0 mi NE 9.2 mph - N/A   Clear
3:55 AM 39.6 °F 34.7 °F 26.4 °F 59% 30.38 in 10.0 mi NE 6.9 mph - N/A   Partly Cloudy
4:55 AM 40.6 °F 35.4 °F 26.8 °F 58% 30.38 in 10.0 mi NNE 8.1 mph - N/A   Mostly Cloudy
5:55 AM 41.4 °F 36.2 °F 27.1 °F 57% 30.38 in 10.0 mi NE 8.1 mph - N/A   Mostly Cloudy
6:55 AM 39.7 °F 35.6 °F 27.9 °F 63% 30.38 in 10.0 mi NE 5.8 mph - N/A   Clear
7:55 AM 40.5 °F 35.8 °F 28.6 °F 63% 30.39 in 10.0 mi NE 6.9 mph - N/A   Clear
8:55 AM 44.2 °F 38.8 °F 29.3 °F 56% 30.41 in 10.0 mi NE 10.4 mph - N/A   Overcast
9:55 AM 48.2 °F - 32.0 °F 54% 30.42 in 10.0 mi NE 11.5 mph - N/A   Overcast
10:55 AM 54.3 °F - 36.7 °F 51% 30.41 in 10.0 mi ENE 10.4 mph - N/A   Clear
11:55 AM 59.7 °F - 41.0 °F 50% 30.38 in 10.0 mi Variable 5.8 mph - N/A   Mostly Cloudy
12:55 PM 63.3 °F - 44.6 °F 50% 30.32 in 10.0 mi ENE 5.8 mph - N/A   Mostly Cloudy
1:55 PM 65.3 °F - 46.8 °F 51% 30.27 in 10.0 mi NNE 6.9 mph - N/A   Clear
2:55 PM 66.2 °F - 47.8 °F 52% 30.25 in 6.0 mi NE 6.9 mph - N/A   Haze
3:55 PM 66.2 °F - 48.0 °F 52% 30.25 in 10.0 mi ENE 4.6 mph - N/A   Clear
4:55 PM 64.2 °F - 48.0 °F 56% 30.25 in 10.0 mi NE 6.9 mph - N/A   Clear
5:55 PM 59.2 °F - 47.7 °F 66% 30.24 in 10.0 mi NE 4.6 mph - N/A   Scattered Clouds
6:55 PM 55.9 °F - 48.2 °F 75% 30.25 in 6.0 mi North 3.5 mph - N/A   Haze
7:55 PM 53.2 °F - 47.1 °F 80% 30.26 in 10.0 mi NNE 4.6 mph - N/A   Mostly Cloudy
8:55 PM 53.8 °F - 46.6 °F 77% 30.27 in 10.0 mi NNE 4.6 mph - N/A   Partly Cloudy
9:55 PM 52.2 °F - 45.9 °F 79% 30.26 in 10.0 mi NE 4.6 mph - N/A   Clear
10:55 PM 52.5 °F - 46.0 °F 79% 30.25 in 10.0 mi ENE 5.8 mph - N/A   Clear
11:55 PM 49.1 °F - 45.1 °F 86% 30.24 in 10.0 mi NNE 3.5 mph - N/A   Clear